Weather History for Evergreen, AL

Change the Weather History Date:

Saturday, November 30, 2013

  Actual Average (KPRN) Record (KPRN)
Temperature  
Mean Temperature 46 °F -  
Max Temperature 66 °F 65 °F 78 °F (1931)
Min Temperature 27 °F 40 °F 20 °F (1979)
Degree Days  
Heating Degree Days 18    
Moisture  
Dew Point 33 °F    
Average Humidity 70    
Maximum Humidity 93    
Minimum Humidity 32    
Precipitation  
Precipitation 0.00 in - - ()
Sea Level Pressure  
Sea Level Pressure 30.39 in    
Wind  
Wind Speed 1 mph (SE)    
Max Wind Speed 6 mph    
Max Gust Speed -    
Visibility 10 miles    
Events      
Averages and records for this station are not official NWS values.
T = Trace of Precipitation, MM = Missing Value Source: NWS Daily Summary

Daily Weather History Graph

Daily Weather History Graph

Search for Another Location

Airport:

Trip Planner

Search our weather history database for the weather conditions in past years. The results will help you decide how hot, cold, wet, or windy it might be!

Date:

Astronomy

Nov. 30, 2013 Rise Set
Actual Time 6:28 AM CST 4:44 PM CST
Civil Twilight 6:02 AM CST 5:11 PM CST
Nautical Twilight 5:32 AM CST 5:41 PM CST
Astronomical Twilight 5:03 AM CST 6:10 PM CST
Moon 3:47 AM CST (11/30) 3:01 PM CST (11/30)
Length of Visible Light 11h 08m
Length of Day
10h 16m
Waning Crescent, 7% of the Moon is Illuminated
Nov 30
Waning Crescent
Dec 2
New
Dec 9
First Quarter
Dec 17
Full
Dec 25
Last Quarter

Hourly Weather History & Observations

Time (CST) Temp. Windchill Dew Point Humidity Pressure Visibility Wind Dir Wind Speed Gust Speed Precip Events Conditions
12:53 AM 30.0 °F - 26.1 °F 85% 30.44 in 10.0 mi Calm Calm - N/A   Clear
1:53 AM 28.9 °F - 25.0 °F 85% 30.45 in 10.0 mi Calm Calm - N/A   Clear
2:53 AM 28.9 °F - 25.0 °F 85% 30.45 in 10.0 mi Calm Calm - N/A   Clear
3:53 AM 28.0 °F - 24.1 °F 85% 30.44 in 10.0 mi Calm Calm - N/A   Clear
4:53 AM 27.0 °F - 24.1 °F 89% 30.44 in 10.0 mi Calm Calm - N/A   Clear
5:53 AM 27.0 °F - 24.1 °F 89% 30.45 in 10.0 mi Calm Calm - N/A   Clear
6:53 AM 28.0 °F - 25.0 °F 88% 30.47 in 10.0 mi Calm Calm - N/A   Clear
7:53 AM 37.0 °F 34.5 °F 32.0 °F 82% 30.48 in 10.0 mi NNW 3.5 mph - N/A   Clear
8:53 AM 48.0 °F - 33.1 °F 56% 30.49 in 10.0 mi Calm Calm - N/A   Clear
10:53 AM 57.9 °F - 32.0 °F 37% 30.45 in 10.0 mi South 3.5 mph - N/A   Clear
11:53 AM 62.1 °F - 34.0 °F 35% 30.42 in 10.0 mi Calm Calm - N/A   Clear
12:53 PM 64.9 °F - 35.1 °F 33% 30.38 in 10.0 mi Variable 5.8 mph - N/A   Clear
1:53 PM 66.0 °F - 35.1 °F 32% 30.35 in 10.0 mi Variable 4.6 mph - N/A   Clear
2:53 PM 66.0 °F - 35.1 °F 32% 30.33 in 10.0 mi ESE 5.8 mph - N/A   Clear
3:53 PM 64.9 °F - 37.0 °F 36% 30.31 in 10.0 mi Calm Calm - N/A   Clear
4:53 PM 57.0 °F - 39.0 °F 51% 30.31 in 10.0 mi Calm Calm - N/A   Clear
5:53 PM 48.9 °F - 41.0 °F 74% 30.32 in 9.0 mi Calm Calm - N/A   Clear
6:53 PM 45.0 °F - 39.9 °F 82% 30.33 in 10.0 mi Calm Calm - N/A   Clear
7:53 PM 42.1 °F - 39.0 °F 89% 30.32 in 10.0 mi Calm Calm - N/A   Clear
8:53 PM 41.0 °F - 37.0 °F 86% 30.31 in 10.0 mi Calm Calm - N/A   Clear
9:53 PM 39.0 °F - 36.0 °F 89% 30.31 in 10.0 mi Calm Calm - N/A   Clear
10:53 PM 37.9 °F - 35.1 °F 89% 30.31 in 9.0 mi Calm Calm - N/A   Clear
11:53 PM 37.0 °F - 35.1 °F 93% 30.30 in 10.0 mi Calm Calm - N/A   Clear